sat.trackr.live / text

‹ back to catalog

STARLINK-11628 [DTC]

NORAD 63139 · 2025-043H

PAYLOAD ACTIVE UNKNOWN

§ Identity

Operator
Country
US
Launch date
2025-03-03
Launch site
AFETR
Launch vehicle
Mass (kg)
RCS (m²)

Purposes: comms

External: N2YO · Heavens-Above · Gunter

§ Orbital elements

Epoch: 2026-05-25T01:26:08.602656Z

Period
91.66 min
Inclination
42.9976°
Eccentricity
0.0001390
Mean motion
15.70942477 rev/d
Perigee alt
355.3 km
Apogee alt
357.1 km
Semi-major
6,734.3 km
B*
1.4882e-3
RAAN
150.3391°
Arg perigee
189.8989°
Mean anomaly
170.1851°
Rev number
7,148

§ Raw data

STARLINK-11628 [DTC]1 63139U 25043H   26145.05982179  .00195916  00000+0  14882-2 0  99902 63139  42.9976 150.3391 0001390 189.8989 170.1851 15.70942477 71487

JSON: /api/v1/satellites/63139 · /tle

For live sub-satellite position, see the globe view (requires WebGL).

§ Visibility from observer

Set your observer location to see the next 7 days of passes ≥ 10°. The values pass through the URL so the page stays shareable.

No JS? Fill the form by hand. The geolocation button needs JavaScript.